Time,TemperatureF,DewpointF,PressureIn,WindDirection,WindDirectionDegrees,WindSpeedMPH,WindSpeedGustMPH,Humidity,HourlyPrecipIn,Conditions,Clouds,dailyrainin,SoftwareType,DateUTC
2013-04-22 00:00:00,43.5,37.1,30.37,NE,56,2.0,5.0,78,0.00,,---,0.00,VWS V14.01,2013-04-22 07:00:00,
2013-04-22 00:01:00,43.5,37.1,30.37,North,360,1.0,5.0,78,0.00,,---,0.07,VWS V14.01,2013-04-22 07:01:00,
2013-04-22 00:05:00,43.5,36.8,30.38,East,98,0.0,5.0,77,0.00,,---,0.00,VWS V14.01,2013-04-22 07:05:00,
2013-04-22 00:06:00,43.5,36.8,30.38,East,79,1.0,5.0,77,0.00,,---,0.00,VWS V14.01,2013-04-22 07:06:00,
2013-04-22 00:10:00,43.5,36.8,30.38,East,81,2.0,7.0,77,0.00,,---,0.00,VWS V14.01,2013-04-22 07:10:00,
2013-04-22 00:11:00,43.5,36.8,30.38,ENE,63,1.0,7.0,77,0.00,,---,0.00,VWS V14.01,2013-04-22 07:11:00,
2013-04-22 00:15:00,43.3,36.9,30.38,NE,53,1.0,5.0,78,0.00,,---,0.00,VWS V14.01,2013-04-22 07:15:00,
2013-04-22 00:16:00,43.4,37.0,30.38,NE,53,2.0,5.0,78,0.00,,---,0.00,VWS V14.01,2013-04-22 07:16:00,
2013-04-22 00:20:00,43.3,36.9,30.38,NW,316,1.0,5.0,78,0.00,,---,0.00,VWS V14.01,2013-04-22 07:20:00,
2013-04-22 00:21:00,43.3,36.9,30.38,North,3,3.0,5.0,78,0.00,,---,0.00,VWS V14.01,2013-04-22 07:21:00,
2013-04-22 00:25:00,43.5,37.1,30.38,WNW,282,5.0,8.0,78,0.00,,---,0.00,VWS V14.01,2013-04-22 07:25:00,
2013-04-22 00:26:00,43.4,37.0,30.38,ENE,60,3.0,8.0,78,0.00,,---,0.00,VWS V14.01,2013-04-22 07:26:00,
2013-04-22 00:30:00,43.5,37.1,30.38,NW,312,2.0,5.0,78,0.00,,---,0.00,VWS V14.01,2013-04-22 07:30:00,
2013-04-22 00:31:00,43.5,37.1,30.38,WSW,243,0.0,5.0,78,0.00,,---,0.00,VWS V14.01,2013-04-22 07:31:00,
2013-04-22 00:35:00,43.6,37.5,30.39,ESE,110,2.0,5.0,79,0.00,,---,0.00,VWS V14.01,2013-04-22 07:35:00,
2013-04-22 00:36:00,43.6,37.5,30.39,ENE,72,2.0,5.0,79,0.00,,---,0.00,VWS V14.01,2013-04-22 07:36:00,
2013-04-22 00:40:00,43.7,37.6,30.39,NNE,22,2.0,7.0,79,0.00,,---,0.00,VWS V14.01,2013-04-22 07:40:00,
2013-04-22 00:41:00,43.7,37.6,30.39,ENE,72,3.0,7.0,79,0.00,,---,0.00,VWS V14.01,2013-04-22 07:41:00,
2013-04-22 00:45:00,43.8,37.7,30.39,NE,45,4.0,6.0,79,0.00,,---,0.00,VWS V14.01,2013-04-22 07:45:00,
2013-04-22 00:46:00,43.8,37.7,30.39,NW,308,4.0,6.0,79,0.00,,---,0.00,VWS V14.01,2013-04-22 07:46:00,
2013-04-22 00:50:00,43.8,38.0,30.39,ENE,67,2.0,9.0,80,0.00,,---,0.00,VWS V14.01,2013-04-22 07:50:00,
2013-04-22 00:51:00,43.8,38.0,30.39,NNW,327,2.0,9.0,80,0.00,,---,0.00,VWS V14.01,2013-04-22 07:51:00,
2013-04-22 00:55:00,43.8,38.0,30.40,ENE,73,2.0,6.0,80,0.00,,---,0.00,VWS V14.01,2013-04-22 07:55:00,
2013-04-22 00:56:00,43.8,38.0,30.40,NE,41,4.0,6.0,80,0.00,,---,0.00,VWS V14.01,2013-04-22 07:56:00,
2013-04-22 01:00:00,43.8,38.4,30.40,ENE,70,2.0,5.0,81,0.00,,---,0.00,VWS V14.01,2013-04-22 08:00:00,
2013-04-22 01:01:00,43.7,38.3,30.40,ENE,68,1.0,5.0,81,0.00,,---,0.00,VWS V14.01,2013-04-22 08:01:00,
2013-04-22 01:05:00,43.7,38.6,30.40,ENE,59,2.0,4.0,82,0.00,,---,0.00,VWS V14.01,2013-04-22 08:05:00,
2013-04-22 01:06:00,43.7,38.6,30.40,NNE,20,1.0,4.0,82,0.00,,---,0.00,VWS V14.01,2013-04-22 08:06:00,
2013-04-22 01:10:00,43.6,38.8,30.40,WNW,285,4.0,4.0,83,0.00,,---,0.00,VWS V14.01,2013-04-22 08:10:00,
2013-04-22 01:11:00,43.6,38.5,30.40,NW,326,1.0,4.0,82,0.00,,---,0.00,VWS V14.01,2013-04-22 08:11:00,
2013-04-22 01:15:00,43.5,38.7,30.40,NE,52,1.0,5.0,83,0.00,,---,0.00,VWS V14.01,2013-04-22 08:15:00,
2013-04-22 01:16:00,43.6,38.8,30.40,ENE,71,2.0,5.0,83,0.00,,---,0.00,VWS V14.01,2013-04-22 08:16:00,
2013-04-22 01:20:00,43.5,39.0,30.40,East,81,1.0,6.0,84,0.00,,---,0.00,VWS V14.01,2013-04-22 08:20:00,
2013-04-22 01:21:00,43.4,38.9,30.40,NE,48,1.0,6.0,84,0.00,,---,0.00,VWS V14.01,2013-04-22 08:21:00,
2013-04-22 01:25:00,43.2,38.7,30.40,SE,136,0.0,5.0,84,0.00,,---,0.00,VWS V14.01,2013-04-22 08:25:00,
2013-04-22 01:26:00,43.3,38.8,30.40,NNE,27,5.0,5.0,84,0.00,,---,0.00,VWS V14.01,2013-04-22 08:26:00,
2013-04-22 01:30:00,43.2,39.0,30.40,NE,46,1.0,4.0,85,0.00,,---,0.00,VWS V14.01,2013-04-22 08:30:00,
2013-04-22 01:31:00,43.2,39.0,30.40,NNE,13,1.0,4.0,85,0.00,,---,0.00,VWS V14.01,2013-04-22 08:31:00,
2013-04-22 01:35:00,43.1,39.2,30.40,North,360,1.0,4.0,86,0.00,,---,0.00,VWS V14.01,2013-04-22 08:35:00,
2013-04-22 01:36:00,43.1,39.2,30.40,North,359,2.0,4.0,86,0.00,,---,0.00,VWS V14.01,2013-04-22 08:36:00,
2013-04-22 01:40:00,43.0,39.4,30.40,ENE,65,2.0,4.0,87,0.00,,---,0.00,VWS V14.01,2013-04-22 08:40:00,
2013-04-22 01:41:00,43.0,39.4,30.40,NNE,18,4.0,4.0,87,0.00,,---,0.00,VWS V14.01,2013-04-22 08:41:00,
2013-04-22 01:45:00,43.0,39.4,30.40,NW,320,1.0,6.0,87,0.00,,---,0.00,VWS V14.01,2013-04-22 08:45:00,
2013-04-22 01:46:00,43.0,39.4,30.40,ESE,119,3.0,6.0,87,0.00,,---,0.00,VWS V14.01,2013-04-22 08:46:00,
2013-04-22 01:50:00,43.1,39.5,30.40,NE,37,4.0,8.0,87,0.00,,---,0.00,VWS V14.01,2013-04-22 08:50:00,
2013-04-22 01:51:00,43.1,39.5,30.40,NNE,13,4.0,8.0,87,0.00,,---,0.00,VWS V14.01,2013-04-22 08:51:00,
2013-04-22 01:55:00,43.2,39.6,30.40,NW,323,2.0,9.0,87,0.00,,---,0.00,VWS V14.01,2013-04-22 08:55:00,
2013-04-22 01:56:00,43.2,39.6,30.40,ENE,71,2.0,9.0,87,0.00,,---,0.00,VWS V14.01,2013-04-22 08:56:00,
2013-04-22 02:00:00,43.3,39.7,30.40,NNW,340,2.0,6.0,87,0.00,,---,0.00,VWS V14.01,2013-04-22 09:00:00,
2013-04-22 02:01:00,43.3,39.7,30.40,ENE,72,0.0,6.0,87,0.00,,---,0.00,VWS V14.01,2013-04-22 09:01:00,
2013-04-22 02:05:00,43.3,39.7,30.41,NNE,18,2.0,5.0,87,0.00,,---,0.00,VWS V14.01,2013-04-22 09:05:00,
2013-04-22 02:06:00,43.3,39.7,30.41,East,90,0.0,5.0,87,0.00,,---,0.00,VWS V14.01,2013-04-22 09:06:00,
2013-04-22 02:10:00,43.3,39.7,30.41,East,94,1.0,4.0,87,0.00,,---,0.00,VWS V14.01,2013-04-22 09:10:00,
2013-04-22 02:11:00,43.3,39.7,30.41,NNE,25,1.0,4.0,87,0.00,,---,0.00,VWS V14.01,2013-04-22 09:11:00,
2013-04-22 02:15:00,43.2,39.6,30.41,NNE,16,2.0,7.0,87,0.00,,---,0.00,VWS V14.01,2013-04-22 09:15:00,
2013-04-22 02:16:00,43.2,39.6,30.41,ENE,65,2.0,7.0,87,0.00,,---,0.00,VWS V14.01,2013-04-22 09:16:00,
2013-04-22 02:20:00,43.2,39.6,30.41,NW,319,2.0,5.0,87,0.00,,---,0.00,VWS V14.01,2013-04-22 09:20:00,
2013-04-22 02:21:00,43.2,39.6,30.41,ENE,65,2.0,5.0,87,0.00,,---,0.00,VWS V14.01,2013-04-22 09:21:00,
2013-04-22 02:25:00,43.3,39.7,30.41,NE,40,2.0,8.0,87,0.00,,---,0.00,VWS V14.01,2013-04-22 09:25:00,
2013-04-22 02:26:00,43.2,39.6,30.41,ENE,63,3.0,8.0,87,0.00,,---,0.00,VWS V14.01,2013-04-22 09:26:00,
2013-04-22 02:30:00,43.2,39.3,30.41,NNE,32,3.0,4.0,86,0.00,,---,0.00,VWS V14.01,2013-04-22 09:30:00,
2013-04-22 02:31:00,43.2,39.3,30.41,NW,306,1.0,4.0,86,0.00,,---,0.00,VWS V14.01,2013-04-22 09:31:00,
2013-04-22 02:35:00,43.1,39.2,30.42,North,1,2.0,6.0,86,0.00,,---,0.00,VWS V14.01,2013-04-22 09:35:00,
2013-04-22 02:40:00,43.0,39.1,30.42,NNW,345,2.0,4.0,86,0.00,,---,0.00,VWS V14.01,2013-04-22 09:40:00,
2013-04-22 02:45:00,42.9,39.3,30.42,NNW,347,0.0,7.0,87,0.00,,---,0.00,VWS V14.01,2013-04-22 09:45:00,
2013-04-22 02:50:00,42.8,39.2,30.42,East,82,2.0,5.0,87,0.00,,---,0.00,VWS V14.01,2013-04-22 09:50:00,
2013-04-22 02:55:00,42.8,39.2,30.42,NW,319,1.0,5.0,87,0.00,,---,0.00,VWS V14.01,2013-04-22 09:55:00,
2013-04-22 03:00:00,42.7,39.1,30.42,NNW,345,2.0,4.0,87,0.00,,---,0.00,VWS V14.01,2013-04-22 10:00:00,
2013-04-22 03:05:00,42.7,39.1,30.42,ENE,63,2.0,4.0,87,0.00,,---,0.00,VWS V14.01,2013-04-22 10:05:00,
2013-04-22 03:10:00,42.6,39.3,30.42,NE,49,2.0,4.0,88,0.00,,---,0.00,VWS V14.01,2013-04-22 10:10:00,
2013-04-22 03:15:00,42.5,39.2,30.42,NNE,25,1.0,3.0,88,0.00,,---,0.00,VWS V14.01,2013-04-22 10:15:00,
2013-04-22 03:20:00,42.4,39.1,30.42,ENE,57,1.0,2.0,88,0.00,,---,0.00,VWS V14.01,2013-04-22 10:20:00,
2013-04-22 03:25:00,42.3,39.3,30.42,North,354,1.0,3.0,89,0.00,,---,0.00,VWS V14.01,2013-04-22 10:25:00,
2013-04-22 03:30:00,42.1,39.1,30.43,NE,52,1.0,2.0,89,0.00,,---,0.00,VWS V14.01,2013-04-22 10:30:00,
2013-04-22 03:35:00,41.9,38.9,30.43,North,10,1.0,2.0,89,0.00,,---,0.00,VWS V14.01,2013-04-22 10:35:00,
2013-04-22 03:36:00,41.9,38.9,30.43,NNW,338,2.0,2.0,89,0.00,,---,0.00,VWS V14.01,2013-04-22 10:36:00,
2013-04-22 03:40:00,41.9,39.2,30.43,East,80,1.0,2.0,90,0.00,,---,0.00,VWS V14.01,2013-04-22 10:40:00,
2013-04-22 03:45:00,41.8,39.1,30.43,ENE,60,1.0,4.0,90,0.00,,---,0.00,VWS V14.01,2013-04-22 10:45:00,
2013-04-22 03:50:00,41.8,39.1,30.44,NE,46,0.0,6.0,90,0.00,,---,0.00,VWS V14.01,2013-04-22 10:50:00,
2013-04-22 03:55:00,41.9,39.2,30.44,East,84,1.0,4.0,90,0.00,,---,0.00,VWS V14.01,2013-04-22 10:55:00,
2013-04-22 04:00:00,41.9,39.2,30.44,ESE,102,1.0,2.0,90,0.00,,---,0.00,VWS V14.01,2013-04-22 11:00:00,
2013-04-22 04:05:00,41.6,39.2,30.44,ESE,111,2.0,3.0,91,0.00,,---,0.00,VWS V14.01,2013-04-22 11:05:00,
2013-04-22 04:10:00,41.5,39.1,30.44,ESE,107,3.0,4.0,91,0.00,,---,0.00,VWS V14.01,2013-04-22 11:10:00,
2013-04-22 04:15:00,41.4,39.0,30.44,East,94,1.0,4.0,91,0.00,,---,0.00,VWS V14.01,2013-04-22 11:15:00,
2013-04-22 04:20:00,41.3,38.9,30.44,East,79,0.0,3.0,91,0.00,,---,0.00,VWS V14.01,2013-04-22 11:20:00,
2013-04-22 04:25:00,41.2,38.8,30.44,East,94,1.0,2.0,91,0.00,,---,0.00,VWS V14.01,2013-04-22 11:25:00,
2013-04-22 04:30:00,41.0,38.9,30.45,East,92,1.0,2.0,92,0.00,,---,0.00,VWS V14.01,2013-04-22 11:30:00,
2013-04-22 04:35:00,41.0,38.9,30.45,NNE,24,2.0,4.0,92,0.00,,---,0.00,VWS V14.01,2013-04-22 11:35:00,
2013-04-22 04:40:00,41.1,39.0,30.45,NE,55,3.0,4.0,92,0.00,,---,0.00,VWS V14.01,2013-04-22 11:40:00,
2013-04-22 04:45:00,41.1,39.0,30.45,East,86,2.0,5.0,92,0.00,,---,0.00,VWS V14.01,2013-04-22 11:45:00,
2013-04-22 04:50:00,41.0,38.9,30.45,East,99,2.0,5.0,92,0.00,,---,0.00,VWS V14.01,2013-04-22 11:50:00,
2013-04-22 04:55:00,40.9,38.8,30.45,NE,50,2.0,5.0,92,0.00,,---,0.00,VWS V14.01,2013-04-22 11:55:00,
2013-04-22 05:00:00,40.8,38.7,30.46,East,98,3.0,3.0,92,0.00,,---,0.00,VWS V14.01,2013-04-22 12:00:00,
2013-04-22 05:05:00,40.7,38.6,30.46,East,90,1.0,4.0,92,0.00,,---,0.00,VWS V14.01,2013-04-22 12:05:00,
2013-04-22 05:10:00,40.6,38.5,30.46,ENE,63,2.0,4.0,92,0.00,,---,0.00,VWS V14.01,2013-04-22 12:10:00,
2013-04-22 05:15:00,40.6,38.5,30.46,ENE,62,0.0,4.0,92,0.00,,---,0.00,VWS V14.01,2013-04-22 12:15:00,
2013-04-22 05:20:00,40.4,38.3,30.46,NNW,348,2.0,3.0,92,0.00,,---,0.00,VWS V14.01,2013-04-22 12:20:00,
2013-04-22 05:25:00,40.5,38.4,30.46,NE,37,2.0,5.0,92,0.00,,---,0.00,VWS V14.01,2013-04-22 12:25:00,
2013-04-22 05:30:00,40.6,38.5,30.46,North,353,1.0,4.0,92,0.00,,---,0.00,VWS V14.01,2013-04-22 12:30:00,
2013-04-22 05:35:00,40.6,38.5,30.46,East,84,1.0,3.0,92,0.00,,---,0.00,VWS V14.01,2013-04-22 12:35:00,
2013-04-22 05:40:00,40.7,38.6,30.46,NW,319,1.0,4.0,92,0.00,,---,0.00,VWS V14.01,2013-04-22 12:40:00,
2013-04-22 05:45:00,40.7,38.6,30.47,ENE,68,4.0,7.0,92,0.00,,---,0.00,VWS V14.01,2013-04-22 12:45:00,
2013-04-22 05:50:00,40.7,38.3,30.47,ENE,78,1.0,5.0,91,0.00,,---,0.00,VWS V14.01,2013-04-22 12:50:00,
2013-04-22 05:55:00,40.6,38.2,30.47,NE,56,3.0,4.0,91,0.00,,---,0.00,VWS V14.01,2013-04-22 12:55:00,
2013-04-22 06:00:00,40.5,38.4,30.47,NNE,17,1.0,5.0,92,0.00,,---,0.00,VWS V14.01,2013-04-22 13:00:00,
2013-04-22 06:05:00,40.6,38.5,30.47,East,100,1.0,5.0,92,0.00,,---,0.00,VWS V14.01,2013-04-22 13:05:00,
2013-04-22 06:10:00,40.4,38.3,30.47,East,82,1.0,3.0,92,0.00,,---,0.00,VWS V14.01,2013-04-22 13:10:00,
2013-04-22 06:15:00,40.2,38.1,30.47,ENE,60,1.0,3.0,92,0.00,,---,0.00,VWS V14.01,2013-04-22 13:15:00,
2013-04-22 06:20:00,40.1,38.2,30.48,ENE,78,1.0,3.0,93,0.00,,---,0.00,VWS V14.01,2013-04-22 13:20:00,
2013-04-22 06:25:00,39.8,37.7,30.48,East,99,1.0,3.0,92,0.00,,---,0.00,VWS V14.01,2013-04-22 13:25:00,
2013-04-22 06:30:00,39.6,37.5,30.48,East,83,2.0,4.0,92,0.00,,---,0.00,VWS V14.01,2013-04-22 13:30:00,
2013-04-22 06:35:00,39.4,37.3,30.48,ESE,102,0.0,3.0,92,0.00,,---,0.00,VWS V14.01,2013-04-22 13:35:00,
2013-04-22 06:40:00,39.4,37.5,30.48,East,95,1.0,4.0,93,0.00,,---,0.00,VWS V14.01,2013-04-22 13:40:00,
2013-04-22 06:45:00,39.6,37.5,30.48,East,79,1.0,4.0,92,0.00,,---,0.00,VWS V14.01,2013-04-22 13:45:00,
2013-04-22 06:50:00,39.7,37.6,30.49,East,80,2.0,3.0,92,0.00,,---,0.00,VWS V14.01,2013-04-22 13:50:00,
2013-04-22 06:55:00,39.6,37.5,30.49,ENE,63,0.0,3.0,92,0.00,,---,0.00,VWS V14.01,2013-04-22 13:55:00,
2013-04-22 07:00:00,39.6,37.5,30.49,ENE,62,0.0,2.0,92,0.00,,---,0.00,VWS V14.01,2013-04-22 14:00:00,
2013-04-22 07:05:00,39.6,37.5,30.49,ENE,78,0.0,2.0,92,0.00,,---,0.00,VWS V14.01,2013-04-22 14:05:00,
2013-04-22 07:10:00,39.7,37.6,30.49,ENE,77,1.0,3.0,92,0.00,,---,0.00,VWS V14.01,2013-04-22 14:10:00,
2013-04-22 07:15:00,40.0,37.9,30.50,ENE,57,1.0,4.0,92,0.00,,---,0.00,VWS V14.01,2013-04-22 14:15:00,
2013-04-22 07:20:00,40.1,37.7,30.50,ENE,63,1.0,3.0,91,0.00,,---,0.00,VWS V14.01,2013-04-22 14:20:00,
2013-04-22 07:25:00,40.3,37.9,30.50,ENE,75,1.0,4.0,91,0.00,,---,0.00,VWS V14.01,2013-04-22 14:25:00,
2013-04-22 07:30:00,40.4,38.0,30.50,ENE,63,2.0,5.0,91,0.00,,---,0.00,VWS V14.01,2013-04-22 14:30:00,
2013-04-22 07:35:00,40.6,38.2,30.50,ENE,73,3.0,6.0,91,0.00,,---,0.00,VWS V14.01,2013-04-22 14:35:00,
2013-04-22 07:40:00,41.1,38.7,30.50,NE,36,2.0,6.0,91,0.00,,---,0.00,VWS V14.01,2013-04-22 14:40:00,
2013-04-22 07:45:00,41.7,39.0,30.51,North,6,1.0,5.0,90,0.00,,---,0.00,VWS V14.01,2013-04-22 14:45:00,
2013-04-22 07:50:00,42.3,39.3,30.50,North,359,0.0,4.0,89,0.00,,---,0.00,VWS V14.01,2013-04-22 14:50:00,
2013-04-22 07:55:00,42.7,39.4,30.50,NNW,335,1.0,3.0,88,0.00,,---,0.00,VWS V14.01,2013-04-22 14:55:00,
2013-04-22 08:00:00,43.2,39.6,30.50,NNW,338,2.0,4.0,87,0.00,,---,0.00,VWS V14.01,2013-04-22 15:00:00,
2013-04-22 08:05:00,43.6,40.0,30.51,East,94,0.0,4.0,87,0.00,,---,0.00,VWS V14.01,2013-04-22 15:05:00,
2013-04-22 08:10:00,44.2,40.6,30.51,NNW,345,2.0,6.0,87,0.00,,---,0.00,VWS V14.01,2013-04-22 15:10:00,
2013-04-22 08:15:00,44.8,40.9,30.51,West,273,0.0,1.0,86,0.00,,---,0.00,VWS V14.01,2013-04-22 15:15:00,
2013-04-22 08:20:00,45.6,41.4,30.50,NNW,347,0.0,1.0,85,0.00,,---,0.00,VWS V14.01,2013-04-22 15:20:00,
2013-04-22 08:25:00,46.1,41.2,30.51,East,85,1.0,2.0,83,0.00,,---,0.00,VWS V14.01,2013-04-22 15:25:00,
2013-04-22 08:30:00,46.3,41.1,30.51,NE,37,2.0,3.0,82,0.00,,---,0.00,VWS V14.01,2013-04-22 15:30:00,
2013-04-22 08:35:00,46.4,40.9,30.51,East,82,1.0,2.0,81,0.00,,---,0.00,VWS V14.01,2013-04-22 15:35:00,
2013-04-22 08:40:00,46.6,40.8,30.51,WNW,297,3.0,4.0,80,0.00,,---,0.00,VWS V14.01,2013-04-22 15:40:00,
2013-04-22 08:45:00,46.4,40.6,30.51,NW,325,2.0,4.0,80,0.00,,---,0.00,VWS V14.01,2013-04-22 15:45:00,
2013-04-22 08:50:00,46.5,40.3,30.51,West,264,7.0,9.0,79,0.00,,---,0.00,VWS V14.01,2013-04-22 15:50:00,
2013-04-22 08:55:00,46.3,40.2,30.51,NNW,328,1.0,6.0,79,0.00,,---,0.00,VWS V14.01,2013-04-22 15:55:00,
2013-04-22 09:00:00,46.1,39.6,30.51,West,259,1.0,11.0,78,0.00,,---,0.00,VWS V14.01,2013-04-22 16:00:00,
2013-04-22 09:05:00,46.1,39.0,30.50,NNW,331,3.0,9.0,76,0.00,,---,0.00,VWS V14.01,2013-04-22 16:05:00,
2013-04-22 09:10:00,46.3,39.5,30.50,NW,321,6.0,10.0,77,0.00,,---,0.00,VWS V14.01,2013-04-22 16:10:00,
2013-04-22 09:15:00,46.3,39.5,30.51,WSW,243,8.0,11.0,77,0.00,,---,0.00,VWS V14.01,2013-04-22 16:15:00,
2013-04-22 09:20:00,46.4,39.6,30.51,NW,308,2.0,9.0,77,0.00,,---,0.00,VWS V14.01,2013-04-22 16:20:00,
2013-04-22 09:25:00,46.6,39.5,30.51,NW,318,4.0,11.0,76,0.00,,---,0.00,VWS V14.01,2013-04-22 16:25:00,
2013-04-22 09:30:00,46.7,39.5,30.51,NW,325,5.0,9.0,76,0.00,,---,0.00,VWS V14.01,2013-04-22 16:30:00,
2013-04-22 09:35:00,46.7,38.9,30.51,NNW,332,6.0,11.0,74,0.00,,---,0.00,VWS V14.01,2013-04-22 16:35:00,
2013-04-22 09:40:00,46.7,38.9,30.51,NNW,339,5.0,8.0,74,0.00,,---,0.00,VWS V14.01,2013-04-22 16:40:00,
2013-04-22 09:45:00,47.0,39.2,30.51,NW,323,3.0,8.0,74,0.00,,---,0.00,VWS V14.01,2013-04-22 16:45:00,
2013-04-22 09:50:00,47.1,39.2,30.51,WNW,288,3.0,11.0,74,0.00,,---,0.00,VWS V14.01,2013-04-22 16:50:00,
2013-04-22 09:55:00,47.1,38.9,30.51,NNW,335,2.0,10.0,73,0.00,,---,0.00,VWS V14.01,2013-04-22 16:55:00,
2013-04-22 10:00:00,47.3,39.1,30.51,NNW,342,6.0,11.0,73,0.00,,---,0.00,VWS V14.01,2013-04-22 17:00:00,
2013-04-22 10:05:00,47.3,39.1,30.51,NW,305,5.0,10.0,73,0.00,,---,0.00,VWS V14.01,2013-04-22 17:05:00,
2013-04-22 10:10:00,47.6,39.7,30.52,NW,307,6.0,10.0,74,0.00,,---,0.00,VWS V14.01,2013-04-22 17:10:00,
2013-04-22 10:15:00,48.0,40.1,30.52,NE,49,5.0,8.0,74,0.00,,---,0.00,VWS V14.01,2013-04-22 17:15:00,
2013-04-22 10:20:00,48.3,40.4,30.52,NW,321,6.0,9.0,74,0.00,,---,0.00,VWS V14.01,2013-04-22 17:20:00,
2013-04-22 10:25:00,48.5,40.6,30.52,NW,310,2.0,9.0,74,0.00,,---,0.00,VWS V14.01,2013-04-22 17:25:00,
2013-04-22 10:30:00,48.4,40.2,30.52,NW,319,2.0,10.0,73,0.00,,---,0.00,VWS V14.01,2013-04-22 17:30:00,
2013-04-22 10:35:00,48.6,41.0,30.52,NW,307,1.0,6.0,75,0.00,,---,0.00,VWS V14.01,2013-04-22 17:35:00,
2013-04-22 10:40:00,48.6,41.0,30.52,WNW,293,3.0,12.0,75,0.00,,---,0.00,VWS V14.01,2013-04-22 17:40:00,
2013-04-22 10:45:00,48.7,40.5,30.52,NNW,335,9.0,11.0,73,0.00,,---,0.00,VWS V14.01,2013-04-22 17:45:00,
2013-04-22 10:50:00,48.3,40.4,30.52,NW,310,7.0,13.0,74,0.00,,---,0.00,VWS V14.01,2013-04-22 17:50:00,
2013-04-22 10:55:00,48.3,40.4,30.52,WNW,293,7.0,13.0,74,0.00,,---,0.00,VWS V14.01,2013-04-22 17:55:00,
2013-04-22 11:00:00,48.7,40.8,30.52,NNW,335,2.0,10.0,74,0.00,,---,0.00,VWS V14.01,2013-04-22 18:00:00,
2013-04-22 11:05:00,49.2,39.8,30.53,North,5,10.0,12.0,70,0.00,,---,0.00,VWS V14.01,2013-04-22 18:05:00,
2013-04-22 11:10:00,49.3,39.9,30.52,NW,319,12.0,12.0,70,0.00,,---,0.00,VWS V14.01,2013-04-22 18:10:00,
2013-04-22 11:15:00,49.4,39.3,30.52,NW,312,7.0,13.0,68,0.00,,---,0.00,VWS V14.01,2013-04-22 18:15:00,
2013-04-22 11:20:00,50.0,40.2,30.53,NNW,342,2.0,11.0,69,0.00,,---,0.00,VWS V14.01,2013-04-22 18:20:00,
2013-04-22 11:25:00,50.2,39.7,30.53,North,354,6.0,11.0,67,0.00,,---,0.00,VWS V14.01,2013-04-22 18:25:00,
2013-04-22 11:30:00,50.0,40.2,30.53,WNW,302,6.0,15.0,69,0.00,,---,0.00,VWS V14.01,2013-04-22 18:30:00,
2013-04-22 11:35:00,50.4,39.9,30.53,NW,309,4.0,13.0,67,0.00,,---,0.00,VWS V14.01,2013-04-22 18:35:00,
2013-04-22 11:40:00,50.3,39.4,30.53,NW,319,4.0,12.0,66,0.00,,---,0.00,VWS V14.01,2013-04-22 18:40:00,
2013-04-22 11:45:00,50.1,39.6,30.53,NNW,341,9.0,17.0,67,0.00,,---,0.00,VWS V14.01,2013-04-22 18:45:00,
2013-04-22 11:50:00,50.3,39.8,30.53,NNW,336,10.0,13.0,67,0.00,,---,0.00,VWS V14.01,2013-04-22 18:50:00,
2013-04-22 11:55:00,50.8,40.2,30.53,NNW,344,6.0,10.0,67,0.00,,---,0.00,VWS V14.01,2013-04-22 18:55:00,
2013-04-22 12:00:00,51.6,39.8,30.53,NNW,339,3.0,9.0,64,0.00,,---,0.00,VWS V14.01,2013-04-22 19:00:00,
2013-04-22 12:05:00,51.6,39.4,30.53,NW,307,12.0,12.0,63,0.00,,---,0.00,VWS V14.01,2013-04-22 19:05:00,
2013-04-22 12:10:00,51.2,39.5,30.53,NNW,347,2.0,18.0,64,0.00,,---,0.00,VWS V14.01,2013-04-22 19:10:00,
2013-04-22 12:15:00,51.4,38.8,30.53,SSE,148,3.0,16.0,62,0.00,,---,0.00,VWS V14.01,2013-04-22 19:15:00,
2013-04-22 12:20:00,51.7,39.1,30.53,NNW,342,4.0,8.0,62,0.00,,---,0.00,VWS V14.01,2013-04-22 19:20:00,
2013-04-22 12:25:00,51.6,38.6,30.53,NNE,15,10.0,14.0,61,0.00,,---,0.00,VWS V14.01,2013-04-22 19:25:00,
2013-04-22 12:30:00,51.4,38.4,30.52,NNW,327,4.0,12.0,61,0.00,,---,0.00,VWS V14.01,2013-04-22 19:30:00,
2013-04-22 12:34:00,51.9,39.3,30.52,NW,311,6.0,12.0,62,0.00,,---,0.00,VWS V14.01,2013-04-22 19:34:00,
2013-04-22 12:35:00,52.1,39.5,30.52,NW,317,1.0,12.0,62,0.00,,---,0.00,VWS V14.01,2013-04-22 19:35:00,
2013-04-22 12:39:00,52.4,38.9,30.52,ENE,58,2.0,11.0,60,0.00,,---,0.00,VWS V14.01,2013-04-22 19:39:00,
2013-04-22 12:40:00,52.6,39.1,30.52,North,352,5.0,11.0,60,0.00,,---,0.00,VWS V14.01,2013-04-22 19:40:00,
2013-04-22 12:44:00,52.9,38.5,30.52,WNW,302,7.0,14.0,58,0.00,,---,0.00,VWS V14.01,2013-04-22 19:44:00,
2013-04-22 12:45:00,52.8,38.5,30.52,North,356,10.0,14.0,58,0.00,,---,0.00,VWS V14.01,2013-04-22 19:45:00,
2013-04-22 12:49:00,52.4,36.7,30.52,NNW,331,11.0,14.0,55,0.00,,---,0.00,VWS V14.01,2013-04-22 19:49:00,
2013-04-22 12:50:00,52.1,36.9,30.52,West,271,4.0,14.0,56,0.00,,---,0.00,VWS V14.01,2013-04-22 19:50:00,
2013-04-22 12:54:00,52.1,37.8,30.52,NW,317,13.0,13.0,58,0.00,,---,0.00,VWS V14.01,2013-04-22 19:54:00,
2013-04-22 12:55:00,52.0,37.7,30.52,NW,324,10.0,15.0,58,0.00,,---,0.00,VWS V14.01,2013-04-22 19:55:00,
2013-04-22 12:59:00,52.1,37.8,30.51,NW,321,4.0,12.0,58,0.00,,---,0.00,VWS V14.01,2013-04-22 19:59:00,
2013-04-22 13:00:00,52.2,37.4,30.51,NNW,330,6.0,12.0,57,0.00,,---,0.00,VWS V14.01,2013-04-22 20:00:00,
2013-04-22 13:04:00,52.2,37.4,30.51,West,280,5.0,14.0,57,0.00,,---,0.00,VWS V14.01,2013-04-22 20:04:00,
2013-04-22 13:05:00,52.3,37.1,30.51,NNW,336,2.0,14.0,56,0.00,,---,0.00,VWS V14.01,2013-04-22 20:05:00,
2013-04-22 13:09:00,52.5,37.3,30.51,NNW,335,4.0,12.0,56,0.00,,---,0.00,VWS V14.01,2013-04-22 20:09:00,
2013-04-22 13:10:00,52.6,36.9,30.51,WNW,299,11.0,14.0,55,0.00,,---,0.00,VWS V14.01,2013-04-22 20:10:00,
2013-04-22 13:14:00,52.5,36.8,30.51,WNW,288,5.0,13.0,55,0.00,,---,0.00,VWS V14.01,2013-04-22 20:14:00,
2013-04-22 13:15:00,52.5,37.3,30.50,NW,311,9.0,13.0,56,0.00,,---,0.00,VWS V14.01,2013-04-22 20:15:00,
2013-04-22 13:19:00,52.5,37.3,30.50,WNW,301,5.0,12.0,56,0.00,,---,0.00,VWS V14.01,2013-04-22 20:19:00,
2013-04-22 13:20:00,52.7,37.5,30.50,NW,315,3.0,12.0,56,0.00,,---,0.00,VWS V14.01,2013-04-22 20:20:00,
2013-04-22 13:24:00,53.4,37.7,30.50,NW,322,4.0,10.0,55,0.00,,---,0.00,VWS V14.01,2013-04-22 20:24:00,
2013-04-22 13:25:00,53.4,37.2,30.50,NNW,338,7.0,11.0,54,0.00,,---,0.00,VWS V14.01,2013-04-22 20:25:00,
2013-04-22 13:29:00,53.4,37.7,30.50,NW,321,10.0,13.0,55,0.00,,---,0.00,VWS V14.01,2013-04-22 20:29:00,
2013-04-22 13:30:00,53.5,37.8,30.50,NNW,340,6.0,13.0,55,0.00,,---,0.00,VWS V14.01,2013-04-22 20:30:00,
2013-04-22 13:34:00,53.4,37.7,30.50,West,280,13.0,14.0,55,0.00,,---,0.00,VWS V14.01,2013-04-22 20:34:00,
2013-04-22 13:35:00,53.3,37.1,30.50,WNW,286,5.0,14.0,54,0.00,,---,0.00,VWS V14.01,2013-04-22 20:35:00,
2013-04-22 13:39:00,53.2,37.0,30.50,WNW,298,8.0,14.0,54,0.00,,---,0.00,VWS V14.01,2013-04-22 20:39:00,
2013-04-22 13:40:00,53.2,37.0,30.50,NW,305,6.0,14.0,54,0.00,,---,0.00,VWS V14.01,2013-04-22 20:40:00,
2013-04-22 13:44:00,53.5,37.3,30.50,NE,36,5.0,11.0,54,0.00,,---,0.00,VWS V14.01,2013-04-22 20:44:00,
2013-04-22 13:45:00,53.6,36.9,30.50,NW,323,4.0,12.0,53,0.00,,---,0.00,VWS V14.01,2013-04-22 20:45:00,
2013-04-22 13:49:00,53.7,37.5,30.50,NNW,338,2.0,14.0,54,0.00,,---,0.00,VWS V14.01,2013-04-22 20:49:00,
2013-04-22 13:50:00,53.9,37.2,30.50,WNW,297,6.0,14.0,53,0.00,,---,0.00,VWS V14.01,2013-04-22 20:50:00,
2013-04-22 13:54:00,53.8,36.6,30.50,North,8,10.0,14.0,52,0.00,,---,0.00,VWS V14.01,2013-04-22 20:54:00,
2013-04-22 13:55:00,53.8,36.6,30.50,NE,51,7.0,14.0,52,0.00,,---,0.00,VWS V14.01,2013-04-22 20:55:00,
2013-04-22 13:59:00,54.3,37.5,30.50,NW,308,2.0,9.0,53,0.00,,---,0.00,VWS V14.01,2013-04-22 20:59:00,
2013-04-22 14:00:00,54.5,37.2,30.49,NW,316,3.0,9.0,52,0.00,,---,0.00,VWS V14.01,2013-04-22 21:00:00,
2013-04-22 14:04:00,54.6,36.3,30.50,NNW,333,12.0,15.0,50,0.00,,---,0.00,VWS V14.01,2013-04-22 21:04:00,
2013-04-22 14:05:00,54.4,36.2,30.49,NW,308,4.0,15.0,50,0.00,,---,0.00,VWS V14.01,2013-04-22 21:05:00,
2013-04-22 14:09:00,54.2,33.9,30.50,WNW,299,8.0,14.0,46,0.00,,---,0.00,VWS V14.01,2013-04-22 21:09:00,
2013-04-22 14:10:00,54.3,35.0,30.49,NE,51,4.0,14.0,48,0.00,,---,0.00,VWS V14.01,2013-04-22 21:10:00,
2013-04-22 14:14:00,54.5,34.7,30.49,NE,36,5.0,15.0,47,0.00,,---,0.00,VWS V14.01,2013-04-22 21:14:00,
2013-04-22 14:15:00,54.7,35.9,30.49,North,352,5.0,15.0,49,0.00,,---,0.00,VWS V14.01,2013-04-22 21:15:00,
2013-04-22 14:19:00,54.9,34.5,30.50,NW,311,5.0,15.0,46,0.00,,---,0.00,VWS V14.01,2013-04-22 21:19:00,
2013-04-22 14:20:00,54.9,34.0,30.49,NW,317,10.0,15.0,45,0.00,,---,0.00,VWS V14.01,2013-04-22 21:20:00,
2013-04-22 14:24:00,54.6,33.7,30.49,NW,316,7.0,15.0,45,0.00,,---,0.00,VWS V14.01,2013-04-22 21:24:00,
2013-04-22 14:25:00,54.6,33.1,30.49,North,354,9.0,16.0,44,0.00,,---,0.00,VWS V14.01,2013-04-22 21:25:00,
2013-04-22 14:29:00,54.6,33.7,30.49,NW,321,1.0,16.0,45,0.00,,---,0.00,VWS V14.01,2013-04-22 21:29:00,
2013-04-22 14:30:00,54.9,34.0,30.49,NNW,336,2.0,16.0,45,0.00,,---,0.00,VWS V14.01,2013-04-22 21:30:00,
2013-04-22 14:34:00,55.4,33.3,30.49,NNW,328,8.0,13.0,43,0.00,,---,0.00,VWS V14.01,2013-04-22 21:34:00,
2013-04-22 14:35:00,55.3,32.6,30.49,NW,323,5.0,14.0,42,0.00,,---,0.00,VWS V14.01,2013-04-22 21:35:00,
2013-04-22 14:39:00,55.0,31.8,30.49,NE,40,5.0,12.0,41,0.00,,---,0.00,VWS V14.01,2013-04-22 21:39:00,
2013-04-22 14:40:00,55.2,33.1,30.49,WNW,285,6.0,12.0,43,0.00,,---,0.00,VWS V14.01,2013-04-22 21:40:00,
2013-04-22 14:44:00,55.8,33.1,30.49,NW,317,7.0,12.0,42,0.00,,---,0.00,VWS V14.01,2013-04-22 21:44:00,
2013-04-22 14:45:00,55.8,30.6,30.49,WNW,283,5.0,15.0,38,0.00,,---,0.00,VWS V14.01,2013-04-22 21:45:00,
2013-04-22 14:49:00,55.4,29.6,30.49,NNW,329,7.0,17.0,37,0.00,,---,0.00,VWS V14.01,2013-04-22 21:49:00,
2013-04-22 14:50:00,55.3,29.5,30.49,WNW,302,8.0,17.0,37,0.00,,---,0.00,VWS V14.01,2013-04-22 21:50:00,
2013-04-22 14:54:00,55.6,29.1,30.49,NW,305,4.0,14.0,36,0.00,,---,0.00,VWS V14.01,2013-04-22 21:54:00,
2013-04-22 14:55:00,55.5,28.3,30.49,NNW,333,8.0,16.0,35,0.00,,---,0.00,VWS V14.01,2013-04-22 21:55:00,
2013-04-22 14:59:00,55.7,30.5,30.49,WNW,297,2.0,13.0,38,0.00,,---,0.00,VWS V14.01,2013-04-22 21:59:00,
2013-04-22 15:00:00,56.2,28.2,30.49,North,359,8.0,13.0,34,0.00,,---,0.00,VWS V14.01,2013-04-22 22:00:00,
2013-04-22 15:04:00,56.2,28.9,30.49,NW,311,10.0,15.0,35,0.00,,---,0.00,VWS V14.01,2013-04-22 22:04:00,
2013-04-22 15:05:00,56.1,28.8,30.49,NNW,338,6.0,15.0,35,0.00,,---,0.00,VWS V14.01,2013-04-22 22:05:00,
2013-04-22 15:09:00,56.2,28.9,30.49,NW,319,16.0,16.0,35,0.00,,---,0.00,VWS V14.01,2013-04-22 22:09:00,
2013-04-22 15:10:00,56.1,27.4,30.49,West,280,7.0,16.0,33,0.00,,---,0.00,VWS V14.01,2013-04-22 22:10:00,
2013-04-22 15:14:00,55.8,28.6,30.48,NE,41,6.0,16.0,35,0.00,,---,0.00,VWS V14.01,2013-04-22 22:14:00,
2013-04-22 15:15:00,56.1,28.8,30.49,NNW,346,12.0,16.0,35,0.00,,---,0.00,VWS V14.01,2013-04-22 22:15:00,
2013-04-22 15:19:00,56.4,28.4,30.48,West,274,7.0,14.0,34,0.00,,---,0.00,VWS V14.01,2013-04-22 22:19:00,
2013-04-22 15:20:00,56.4,26.9,30.49,NNW,332,4.0,14.0,32,0.00,,---,0.00,VWS V14.01,2013-04-22 22:20:00,
2013-04-22 15:24:00,56.6,26.3,30.48,NNW,336,7.0,16.0,31,0.00,,---,0.00,VWS V14.01,2013-04-22 22:24:00,
2013-04-22 15:25:00,56.6,26.3,30.48,NNW,333,4.0,16.0,31,0.00,,---,0.00,VWS V14.01,2013-04-22 22:25:00,
2013-04-22 15:29:00,56.2,26.0,30.48,NW,310,5.0,15.0,31,0.00,,---,0.00,VWS V14.01,2013-04-22 22:29:00,
2013-04-22 15:30:00,56.2,26.0,30.48,NNW,332,12.0,15.0,31,0.00,,---,0.00,VWS V14.01,2013-04-22 22:30:00,
2013-04-22 15:34:00,56.1,25.1,30.48,NW,304,14.0,15.0,30,0.00,,---,0.00,VWS V14.01,2013-04-22 22:34:00,
2013-04-22 15:35:00,56.1,25.1,30.48,WNW,295,6.0,15.0,30,0.00,,---,0.00,VWS V14.01,2013-04-22 22:35:00,
2013-04-22 15:39:00,56.1,24.3,30.48,NW,313,9.0,15.0,29,0.00,,---,0.00,VWS V14.01,2013-04-22 22:39:00,
2013-04-22 15:40:00,56.2,24.4,30.48,WNW,298,7.0,15.0,29,0.00,,---,0.00,VWS V14.01,2013-04-22 22:40:00,
2013-04-22 15:44:00,56.3,21.9,30.48,NW,305,7.0,15.0,26,0.00,,---,0.00,VWS V14.01,2013-04-22 22:44:00,
2013-04-22 15:45:00,56.4,22.9,30.48,NNW,347,7.0,15.0,27,0.00,,---,0.00,VWS V14.01,2013-04-22 22:45:00,
2013-04-22 15:49:00,56.4,25.4,30.48,NNW,347,12.0,15.0,30,0.00,,---,0.00,VWS V14.01,2013-04-22 22:49:00,
2013-04-22 15:50:00,56.3,26.1,30.48,NNW,335,4.0,15.0,31,0.00,,---,0.00,VWS V14.01,2013-04-22 22:50:00,
2013-04-22 15:54:00,56.4,28.4,30.47,WNW,288,4.0,14.0,34,0.00,,---,0.00,VWS V14.01,2013-04-22 22:54:00,
2013-04-22 15:55:00,56.5,27.0,30.47,WNW,289,8.0,14.0,32,0.00,,---,0.00,VWS V14.01,2013-04-22 22:55:00,
2013-04-22 15:59:00,56.5,25.5,30.47,NW,313,10.0,14.0,30,0.00,,---,0.00,VWS V14.01,2013-04-22 22:59:00,
2013-04-22 16:00:00,56.4,23.7,30.47,NW,316,7.0,14.0,28,0.00,,---,0.00,VWS V14.01,2013-04-22 23:00:00,
2013-04-22 16:04:00,56.5,24.6,30.47,West,267,8.0,12.0,29,0.00,,---,0.00,VWS V14.01,2013-04-22 23:04:00,
2013-04-22 16:05:00,56.7,26.4,30.47,WNW,296,9.0,12.0,31,0.00,,---,0.00,VWS V14.01,2013-04-22 23:05:00,
2013-04-22 16:09:00,57.2,28.4,30.47,NNE,20,8.0,11.0,33,0.00,,---,0.00,VWS V14.01,2013-04-22 23:09:00,
2013-04-22 16:10:00,57.2,28.4,30.47,WNW,295,4.0,11.0,33,0.00,,---,0.00,VWS V14.01,2013-04-22 23:10:00,
2013-04-22 16:14:00,57.4,27.0,30.47,NW,319,4.0,11.0,31,0.00,,---,0.00,VWS V14.01,2013-04-22 23:14:00,
2013-04-22 16:15:00,57.5,25.5,30.47,East,79,3.0,11.0,29,0.00,,---,0.00,VWS V14.01,2013-04-22 23:15:00,
2013-04-22 16:19:00,57.9,25.9,30.47,WNW,290,3.0,7.0,29,0.00,,---,0.00,VWS V14.01,2013-04-22 23:19:00,
2013-04-22 16:20:00,57.9,25.9,30.47,WNW,299,5.0,11.0,29,0.00,,---,0.00,VWS V14.01,2013-04-22 23:20:00,
2013-04-22 16:24:00,58.1,25.2,30.47,NNW,330,11.0,12.0,28,0.00,,---,0.00,VWS V14.01,2013-04-22 23:24:00,
2013-04-22 16:25:00,57.9,25.9,30.47,NNW,345,7.0,14.0,29,0.00,,---,0.00,VWS V14.01,2013-04-22 23:25:00,
2013-04-22 16:29:00,57.6,25.6,30.47,NW,310,4.0,14.0,29,0.00,,---,0.00,VWS V14.01,2013-04-22 23:29:00,
2013-04-22 16:30:00,57.4,24.6,30.47,NW,319,6.0,15.0,28,0.00,,---,0.00,VWS V14.01,2013-04-22 23:30:00,
2013-04-22 16:34:00,57.4,22.8,30.46,NW,316,6.0,14.0,26,0.00,,---,0.00,VWS V14.01,2013-04-22 23:34:00,
2013-04-22 16:35:00,57.2,22.6,30.46,NW,319,10.0,15.0,26,0.00,,---,0.00,VWS V14.01,2013-04-22 23:35:00,
2013-04-22 16:39:00,57.4,22.8,30.46,WNW,289,3.0,14.0,26,0.00,,---,0.00,VWS V14.01,2013-04-22 23:39:00,
2013-04-22 16:40:00,57.3,23.6,30.46,WNW,288,7.0,14.0,27,0.00,,---,0.00,VWS V14.01,2013-04-22 23:40:00,
2013-04-22 16:44:00,57.3,23.6,30.46,NW,315,5.0,14.0,27,0.00,,---,0.00,VWS V14.01,2013-04-22 23:44:00,
2013-04-22 16:45:00,57.4,24.6,30.46,NNW,338,3.0,15.0,28,0.00,,---,0.00,VWS V14.01,2013-04-22 23:45:00,
2013-04-22 16:49:00,57.5,24.7,30.46,NNW,337,11.0,13.0,28,0.00,,---,0.00,VWS V14.01,2013-04-22 23:49:00,
2013-04-22 16:50:00,57.3,25.3,30.46,NW,309,4.0,13.0,29,0.00,,---,0.00,VWS V14.01,2013-04-22 23:50:00,
2013-04-22 16:54:00,57.2,24.4,30.46,NE,49,7.0,17.0,28,0.00,,---,0.00,VWS V14.01,2013-04-22 23:54:00,
2013-04-22 16:55:00,57.3,26.2,30.46,NNW,335,6.0,17.0,30,0.00,,---,0.00,VWS V14.01,2013-04-22 23:55:00,
2013-04-22 16:59:00,57.5,25.5,30.46,WNW,300,5.0,16.0,29,0.00,,---,0.00,VWS V14.01,2013-04-22 23:59:00,
2013-04-22 17:00:00,57.4,27.0,30.45,NE,34,4.0,16.0,31,0.00,,---,0.00,VWS V14.01,2013-04-23 00:00:00,
2013-04-22 17:04:00,57.7,27.3,30.45,East,91,3.0,10.0,31,0.00,,---,0.00,VWS V14.01,2013-04-23 00:04:00,
2013-04-22 17:05:00,57.8,25.8,30.45,NNW,340,1.0,13.0,29,0.00,,---,0.00,VWS V14.01,2013-04-23 00:05:00,
2013-04-22 17:09:00,57.8,25.8,30.45,NW,314,2.0,12.0,29,0.00,,---,0.00,VWS V14.01,2013-04-23 00:09:00,
2013-04-22 17:10:00,57.8,24.9,30.45,NW,321,6.0,12.0,28,0.00,,---,0.00,VWS V14.01,2013-04-23 00:10:00,
2013-04-22 17:14:00,57.8,24.9,30.45,NNW,330,3.0,13.0,28,0.00,,---,0.00,VWS V14.01,2013-04-23 00:14:00,
2013-04-22 17:15:00,57.7,24.0,30.45,North,349,1.0,13.0,27,0.00,,---,0.00,VWS V14.01,2013-04-23 00:15:00,
2013-04-22 17:19:00,57.5,22.9,30.45,NNW,338,2.0,14.0,26,0.00,,---,0.00,VWS V14.01,2013-04-23 00:19:00,
2013-04-22 17:20:00,57.5,23.8,30.45,NW,318,11.0,14.0,27,0.00,,---,0.00,VWS V14.01,2013-04-23 00:20:00,
2013-04-22 17:24:00,57.2,23.5,30.45,SE,146,3.0,14.0,27,0.00,,---,0.00,VWS V14.01,2013-04-23 00:24:00,
2013-04-22 17:25:00,57.4,25.4,30.45,NW,314,10.0,14.0,29,0.00,,---,0.00,VWS V14.01,2013-04-23 00:25:00,
2013-04-22 17:29:00,57.2,25.2,30.45,WNW,283,6.0,12.0,29,0.00,,---,0.00,VWS V14.01,2013-04-23 00:29:00,
2013-04-22 17:30:00,57.1,26.0,30.45,WNW,296,8.0,14.0,30,0.00,,---,0.00,VWS V14.01,2013-04-23 00:30:00,
2013-04-22 17:34:00,56.7,26.4,30.45,NW,319,12.0,13.0,31,0.00,,---,0.00,VWS V14.01,2013-04-23 00:34:00,
2013-04-22 17:35:00,56.6,27.1,30.45,NW,304,10.0,13.0,32,0.00,,---,0.00,VWS V14.01,2013-04-23 00:35:00,
2013-04-22 17:39:00,56.5,26.2,30.45,NNW,333,13.0,15.0,31,0.00,,---,0.00,VWS V14.01,2013-04-23 00:39:00,
2013-04-22 17:40:00,56.4,26.2,30.45,NNW,333,9.0,15.0,31,0.00,,---,0.00,VWS V14.01,2013-04-23 00:40:00,
2013-04-22 17:44:00,56.8,26.5,30.45,WNW,297,3.0,10.0,31,0.00,,---,0.00,VWS V14.01,2013-04-23 00:44:00,
2013-04-22 17:45:00,56.9,25.0,30.45,NNW,348,6.0,10.0,29,0.00,,---,0.00,VWS V14.01,2013-04-23 00:45:00,
2013-04-22 17:49:00,56.8,24.1,30.45,North,11,3.0,12.0,28,0.00,,---,0.00,VWS V14.01,2013-04-23 00:49:00,
2013-04-22 17:50:00,57.0,24.2,30.44,WNW,290,9.0,12.0,28,0.00,,---,0.00,VWS V14.01,2013-04-23 00:50:00,
2013-04-22 17:54:00,57.1,23.5,30.45,NW,324,7.0,13.0,27,0.00,,---,0.00,VWS V14.01,2013-04-23 00:54:00,
2013-04-22 17:55:00,57.0,22.5,30.45,North,6,9.0,13.0,26,0.00,,---,0.00,VWS V14.01,2013-04-23 00:55:00,
2013-04-22 17:59:00,57.1,22.6,30.45,West,275,6.0,9.0,26,0.00,,---,0.00,VWS V14.01,2013-04-23 00:59:00,
2013-04-22 18:00:00,57.0,21.5,30.45,NW,321,6.0,12.0,25,0.00,,---,0.00,VWS V14.01,2013-04-23 01:00:00,
2013-04-22 18:04:00,56.8,21.4,30.45,NNW,328,7.0,13.0,25,0.00,,---,0.00,VWS V14.01,2013-04-23 01:04:00,
2013-04-22 18:05:00,56.9,21.5,30.45,NNW,335,4.0,13.0,25,0.00,,---,0.00,VWS V14.01,2013-04-23 01:05:00,
2013-04-22 18:09:00,56.8,22.3,30.44,North,351,10.0,14.0,26,0.00,,---,0.00,VWS V14.01,2013-04-23 01:09:00,
2013-04-22 18:10:00,56.8,21.4,30.45,ENE,57,7.0,15.0,25,0.00,,---,0.00,VWS V14.01,2013-04-23 01:10:00,
2013-04-22 18:14:00,56.8,21.4,30.44,West,271,2.0,14.0,25,0.00,,---,0.00,VWS V14.01,2013-04-23 01:14:00,
2013-04-22 18:15:00,56.8,21.4,30.44,NW,321,11.0,17.0,25,0.00,,---,0.00,VWS V14.01,2013-04-23 01:15:00,
2013-04-22 18:19:00,56.8,22.3,30.45,NW,319,2.0,11.0,26,0.00,,---,0.00,VWS V14.01,2013-04-23 01:19:00,
2013-04-22 18:20:00,56.8,22.3,30.45,NNE,20,9.0,14.0,26,0.00,,---,0.00,VWS V14.01,2013-04-23 01:20:00,
2013-04-22 18:24:00,56.6,23.0,30.45,NW,309,3.0,13.0,27,0.00,,---,0.00,VWS V14.01,2013-04-23 01:24:00,
2013-04-22 18:25:00,56.6,23.9,30.45,NW,313,6.0,13.0,28,0.00,,---,0.00,VWS V14.01,2013-04-23 01:25:00,
2013-04-22 18:29:00,56.6,23.9,30.45,NNW,342,6.0,11.0,28,0.00,,---,0.00,VWS V14.01,2013-04-23 01:29:00,
2013-04-22 18:30:00,56.6,24.7,30.45,NNW,344,6.0,12.0,29,0.00,,---,0.00,VWS V14.01,2013-04-23 01:30:00,
2013-04-22 18:34:00,56.3,26.8,30.44,NNE,25,8.0,14.0,32,0.00,,---,0.00,VWS V14.01,2013-04-23 01:34:00,
2013-04-22 18:35:00,56.3,27.6,30.45,NNW,328,5.0,14.0,33,0.00,,---,0.00,VWS V14.01,2013-04-23 01:35:00,
2013-04-22 18:39:00,56.3,29.0,30.45,North,354,6.0,11.0,35,0.00,,---,0.00,VWS V14.01,2013-04-23 01:39:00,
2013-04-22 18:40:00,56.2,28.9,30.45,ENE,61,3.0,11.0,35,0.00,,---,0.00,VWS V14.01,2013-04-23 01:40:00,
2013-04-22 18:44:00,56.2,29.6,30.45,North,355,3.0,12.0,36,0.00,,---,0.00,VWS V14.01,2013-04-23 01:44:00,
2013-04-22 18:45:00,56.3,30.4,30.44,West,263,8.0,12.0,37,0.00,,---,0.00,VWS V14.01,2013-04-23 01:45:00,
2013-04-22 18:49:00,56.2,30.3,30.44,NW,323,8.0,9.0,37,0.00,,---,0.00,VWS V14.01,2013-04-23 01:49:00,
2013-04-22 18:50:00,56.2,31.0,30.44,NW,314,4.0,9.0,38,0.00,,---,0.00,VWS V14.01,2013-04-23 01:50:00,
2013-04-22 18:54:00,56.3,31.7,30.44,NNW,341,4.0,9.0,39,0.00,,---,0.00,VWS V14.01,2013-04-23 01:54:00,
2013-04-22 18:55:00,56.4,31.8,30.44,North,354,3.0,9.0,39,0.00,,---,0.00,VWS V14.01,2013-04-23 01:55:00,
2013-04-22 18:59:00,56.4,31.8,30.44,ENE,65,4.0,9.0,39,0.00,,---,0.00,VWS V14.01,2013-04-23 01:59:00,
2013-04-22 19:00:00,56.5,31.9,30.44,NNE,30,1.0,9.0,39,0.00,,---,0.00,VWS V14.01,2013-04-23 02:00:00,
2013-04-22 19:04:00,56.5,31.2,30.44,NW,322,5.0,8.0,38,0.00,,---,0.00,VWS V14.01,2013-04-23 02:04:00,
2013-04-22 19:05:00,56.3,31.7,30.44,NW,309,6.0,10.0,39,0.00,,---,0.00,VWS V14.01,2013-04-23 02:05:00,
2013-04-22 19:09:00,55.9,31.3,30.44,NNW,348,7.0,13.0,39,0.00,,---,0.00,VWS V14.01,2013-04-23 02:09:00,
2013-04-22 19:10:00,55.7,31.1,30.44,NW,315,4.0,13.0,39,0.00,,---,0.00,VWS V14.01,2013-04-23 02:10:00,
2013-04-22 19:14:00,55.4,31.5,30.44,NW,312,1.0,8.0,40,0.00,,---,0.00,VWS V14.01,2013-04-23 02:14:00,
2013-04-22 19:15:00,55.3,31.4,30.44,NNW,343,10.0,13.0,40,0.00,,---,0.00,VWS V14.01,2013-04-23 02:15:00,
2013-04-22 19:19:00,55.1,31.8,30.45,NW,321,13.0,13.0,41,0.00,,---,0.00,VWS V14.01,2013-04-23 02:19:00,
2013-04-22 19:20:00,55.0,31.8,30.44,NW,316,9.0,13.0,41,0.00,,---,0.00,VWS V14.01,2013-04-23 02:20:00,
2013-04-22 19:24:00,54.8,32.2,30.44,North,352,3.0,10.0,42,0.00,,---,0.00,VWS V14.01,2013-04-23 02:24:00,
2013-04-22 19:25:00,54.7,32.1,30.44,NW,317,11.0,11.0,42,0.00,,---,0.00,VWS V14.01,2013-04-23 02:25:00,
2013-04-22 19:29:00,54.5,32.5,30.44,ESE,113,2.0,12.0,43,0.00,,---,0.00,VWS V14.01,2013-04-23 02:29:00,
2013-04-22 19:30:00,54.3,32.9,30.44,NNW,330,4.0,12.0,44,0.00,,---,0.00,VWS V14.01,2013-04-23 02:30:00,
2013-04-22 19:34:00,54.1,32.7,30.44,NNW,344,9.0,11.0,44,0.00,,---,0.00,VWS V14.01,2013-04-23 02:34:00,
2013-04-22 19:35:00,54.0,33.2,30.44,NNW,338,3.0,11.0,45,0.00,,---,0.00,VWS V14.01,2013-04-23 02:35:00,
2013-04-22 19:39:00,53.8,33.0,30.44,WNW,290,4.0,10.0,45,0.00,,---,0.00,VWS V14.01,2013-04-23 02:39:00,
2013-04-22 19:40:00,53.7,32.9,30.43,NNW,337,9.0,11.0,45,0.00,,---,0.00,VWS V14.01,2013-04-23 02:40:00,
2013-04-22 19:44:00,53.6,32.2,30.43,NNW,333,2.0,9.0,44,0.00,,---,0.00,VWS V14.01,2013-04-23 02:44:00,
2013-04-22 19:45:00,53.6,32.2,30.43,NW,326,6.0,9.0,44,0.00,,---,0.00,VWS V14.01,2013-04-23 02:45:00,
2013-04-22 19:49:00,53.5,32.1,30.43,WNW,297,2.0,6.0,44,0.00,,---,0.00,VWS V14.01,2013-04-23 02:49:00,
2013-04-22 19:50:00,53.4,32.0,30.43,NW,311,1.0,7.0,44,0.00,,---,0.00,VWS V14.01,2013-04-23 02:50:00,
2013-04-22 19:54:00,53.3,32.0,30.43,ENE,63,5.0,9.0,44,0.00,,---,0.00,VWS V14.01,2013-04-23 02:54:00,
2013-04-22 19:55:00,53.2,32.4,30.43,West,279,3.0,9.0,45,0.00,,---,0.00,VWS V14.01,2013-04-23 02:55:00,
2013-04-22 19:59:00,52.9,32.2,30.43,NNW,335,3.0,7.0,45,0.00,,---,0.00,VWS V14.01,2013-04-23 02:59:00,
2013-04-22 20:00:00,52.8,32.1,30.43,NW,311,1.0,7.0,45,0.00,,---,0.00,VWS V14.01,2013-04-23 03:00:00,
2013-04-22 20:04:00,52.6,32.4,30.43,ENE,69,1.0,6.0,46,0.00,,---,0.00,VWS V14.01,2013-04-23 03:04:00,
2013-04-22 20:05:00,52.5,31.8,30.43,SE,124,3.0,8.0,45,0.00,,---,0.00,VWS V14.01,2013-04-23 03:05:00,
2013-04-22 20:09:00,52.3,32.2,30.44,NNW,340,2.0,5.0,46,0.00,,---,0.00,VWS V14.01,2013-04-23 03:09:00,
2013-04-22 20:10:00,52.2,32.1,30.44,WNW,290,3.0,7.0,46,0.00,,---,0.00,VWS V14.01,2013-04-23 03:10:00,
2013-04-22 20:14:00,52.0,31.3,30.44,NNW,328,3.0,8.0,45,0.00,,---,0.00,VWS V14.01,2013-04-23 03:14:00,
2013-04-22 20:15:00,52.0,31.3,30.44,NNE,20,3.0,8.0,45,0.00,,---,0.00,VWS V14.01,2013-04-23 03:15:00,
2013-04-22 20:19:00,51.9,31.2,30.44,ENE,67,4.0,6.0,45,0.00,,---,0.00,VWS V14.01,2013-04-23 03:19:00,
2013-04-22 20:20:00,51.8,31.1,30.43,NNW,333,1.0,6.0,45,0.00,,---,0.00,VWS V14.01,2013-04-23 03:20:00,
2013-04-22 20:24:00,51.6,31.0,30.44,NNE,12,1.0,5.0,45,0.00,,---,0.00,VWS V14.01,2013-04-23 03:24:00,
2013-04-22 20:25:00,51.6,31.0,30.44,NW,310,1.0,5.0,45,0.00,,---,0.00,VWS V14.01,2013-04-23 03:25:00,
2013-04-22 20:29:00,51.4,30.8,30.44,NNW,330,2.0,4.0,45,0.00,,---,0.00,VWS V14.01,2013-04-23 03:29:00,
2013-04-22 20:30:00,51.4,30.2,30.44,NNW,346,1.0,4.0,44,0.00,,---,0.00,VWS V14.01,2013-04-23 03:30:00,
2013-04-22 20:34:00,51.3,30.1,30.44,East,98,1.0,7.0,44,0.00,,---,0.00,VWS V14.01,2013-04-23 03:34:00,
2013-04-22 20:35:00,51.2,30.0,30.44,NNW,342,3.0,7.0,44,0.00,,---,0.00,VWS V14.01,2013-04-23 03:35:00,
2013-04-22 20:39:00,51.2,29.5,30.44,West,278,1.0,6.0,43,0.00,,---,0.00,VWS V14.01,2013-04-23 03:39:00,
2013-04-22 20:40:00,51.1,29.4,30.44,NE,39,1.0,7.0,43,0.00,,---,0.00,VWS V14.01,2013-04-23 03:40:00,
2013-04-22 20:44:00,51.0,29.3,30.44,NW,304,3.0,5.0,43,0.00,,---,0.00,VWS V14.01,2013-04-23 03:44:00,
2013-04-22 20:45:00,51.0,29.3,30.45,East,91,1.0,5.0,43,0.00,,---,0.00,VWS V14.01,2013-04-23 03:45:00,
2013-04-22 20:49:00,50.9,29.8,30.44,NNW,333,1.0,6.0,44,0.00,,---,0.00,VWS V14.01,2013-04-23 03:49:00,
2013-04-22 20:50:00,50.8,29.7,30.45,NNE,32,2.0,6.0,44,0.00,,---,0.00,VWS V14.01,2013-04-23 03:50:00,
2013-04-22 20:54:00,50.8,29.7,30.45,North,10,2.0,5.0,44,0.00,,---,0.00,VWS V14.01,2013-04-23 03:54:00,
2013-04-22 20:55:00,50.8,29.1,30.44,North,1,1.0,5.0,43,0.00,,---,0.00,VWS V14.01,2013-04-23 03:55:00,
2013-04-22 20:59:00,50.8,29.1,30.45,NW,318,1.0,7.0,43,0.00,,---,0.00,VWS V14.01,2013-04-23 03:59:00,
2013-04-22 21:00:00,50.8,28.5,30.44,ENE,75,4.0,7.0,42,0.00,,---,0.00,VWS V14.01,2013-04-23 04:00:00,
2013-04-22 21:01:00,50.8,28.5,30.44,NE,40,2.0,7.0,42,0.00,,---,0.00,VWS V14.01,2013-04-23 04:01:00,
2013-04-22 21:05:00,50.8,28.5,30.44,East,83,1.0,6.0,42,0.00,,---,0.00,VWS V14.01,2013-04-23 04:05:00,
2013-04-22 21:06:00,50.8,28.5,30.44,NE,51,2.0,6.0,42,0.00,,---,0.00,VWS V14.01,2013-04-23 04:06:00,
2013-04-22 21:10:00,50.8,28.0,30.44,NE,56,2.0,5.0,41,0.00,,---,0.00,VWS V14.01,2013-04-23 04:10:00,
2013-04-22 21:11:00,50.8,28.0,30.44,East,96,1.0,5.0,41,0.00,,---,0.00,VWS V14.01,2013-04-23 04:11:00,
2013-04-22 21:15:00,50.7,28.5,30.44,NNE,27,2.0,4.0,42,0.00,,---,0.00,VWS V14.01,2013-04-23 04:15:00,
2013-04-22 21:16:00,50.7,28.5,30.44,ENE,77,3.0,4.0,42,0.00,,---,0.00,VWS V14.01,2013-04-23 04:16:00,
2013-04-22 21:20:00,50.5,28.3,30.44,NNE,14,1.0,5.0,42,0.00,,---,0.00,VWS V14.01,2013-04-23 04:20:00,
2013-04-22 21:21:00,50.5,28.3,30.44,East,86,1.0,5.0,42,0.00,,---,0.00,VWS V14.01,2013-04-23 04:21:00,
2013-04-22 21:25:00,50.3,28.1,30.44,SE,131,2.0,4.0,42,0.00,,---,0.00,VWS V14.01,2013-04-23 04:25:00,
2013-04-22 21:26:00,50.4,28.2,30.44,North,356,1.0,4.0,42,0.00,,---,0.00,VWS V14.01,2013-04-23 04:26:00,
2013-04-22 21:30:00,50.3,27.5,30.44,North,4,1.0,4.0,41,0.00,,---,0.00,VWS V14.01,2013-04-23 04:30:00,
2013-04-22 21:31:00,50.3,27.5,30.44,North,360,1.0,4.0,41,0.00,,---,0.00,VWS V14.01,2013-04-23 04:31:00,
2013-04-22 21:35:00,50.2,27.4,30.44,NE,47,0.0,2.0,41,0.00,,---,0.00,VWS V14.01,2013-04-23 04:35:00,
2013-04-22 21:36:00,50.2,27.4,30.44,NE,47,1.0,2.0,41,0.00,,---,0.00,VWS V14.01,2013-04-23 04:36:00,
2013-04-22 21:40:00,50.1,26.1,30.44,NE,45,2.0,4.0,39,0.00,,---,0.00,VWS V14.01,2013-04-23 04:40:00,
2013-04-22 21:41:00,50.1,26.1,30.44,NE,44,2.0,4.0,39,0.00,,---,0.00,VWS V14.01,2013-04-23 04:41:00,
2013-04-22 21:45:00,50.1,26.1,30.44,NE,43,1.0,3.0,39,0.00,,---,0.00,VWS V14.01,2013-04-23 04:45:00,
2013-04-22 21:46:00,50.1,26.1,30.44,NE,43,1.0,3.0,39,0.00,,---,0.00,VWS V14.01,2013-04-23 04:46:00,
2013-04-22 21:50:00,50.0,26.6,30.44,NE,52,2.0,4.0,40,0.00,,---,0.00,VWS V14.01,2013-04-23 04:50:00,
2013-04-22 21:51:00,50.1,26.7,30.44,ENE,58,1.0,4.0,40,0.00,,---,0.00,VWS V14.01,2013-04-23 04:51:00,
2013-04-22 21:55:00,49.8,26.5,30.44,NE,47,0.0,2.0,40,0.00,,---,0.00,VWS V14.01,2013-04-23 04:55:00,
2013-04-22 21:56:00,49.8,26.5,30.44,NE,47,0.0,2.0,40,0.00,,---,0.00,VWS V14.01,2013-04-23 04:56:00,
2013-04-22 22:00:00,49.5,26.8,30.44,North,11,0.0,1.0,41,0.00,,---,0.00,VWS V14.01,2013-04-23 05:00:00,
2013-04-22 22:01:00,49.5,26.8,30.44,North,11,0.0,1.0,41,0.00,,---,0.00,VWS V14.01,2013-04-23 05:01:00,
2013-04-22 22:05:00,49.3,26.0,30.44,ENE,73,0.0,1.0,40,0.00,,---,0.00,VWS V14.01,2013-04-23 05:05:00,
2013-04-22 22:06:00,49.3,26.0,30.44,NE,52,1.0,1.0,40,0.00,,---,0.00,VWS V14.01,2013-04-23 05:06:00,
2013-04-22 22:10:00,49.1,25.2,30.44,NNW,335,0.0,2.0,39,0.00,,---,0.00,VWS V14.01,2013-04-23 05:10:00,
2013-04-22 22:11:00,49.1,25.2,30.44,NNW,335,0.0,2.0,39,0.00,,---,0.00,VWS V14.01,2013-04-23 05:11:00,
2013-04-22 22:15:00,49.1,25.8,30.44,NW,323,0.0,1.0,40,0.00,,---,0.00,VWS V14.01,2013-04-23 05:15:00,
2013-04-22 22:16:00,49.1,25.8,30.44,NW,323,0.0,1.0,40,0.00,,---,0.00,VWS V14.01,2013-04-23 05:16:00,
2013-04-22 22:20:00,48.8,25.6,30.44,NNW,332,0.0,1.0,40,0.00,,---,0.00,VWS V14.01,2013-04-23 05:20:00,
2013-04-22 22:21:00,48.8,25.6,30.44,NNW,331,0.0,1.0,40,0.00,,---,0.00,VWS V14.01,2013-04-23 05:21:00,
2013-04-22 22:25:00,48.6,25.4,30.44,NNW,342,0.0,1.0,40,0.00,,---,0.00,VWS V14.01,2013-04-23 05:25:00,
2013-04-22 22:26:00,48.6,25.4,30.44,NNW,342,0.0,1.0,40,0.00,,---,0.00,VWS V14.01,2013-04-23 05:26:00,
2013-04-22 22:30:00,48.6,26.0,30.44,NNW,331,0.0,4.0,41,0.00,,---,0.00,VWS V14.01,2013-04-23 05:30:00,
2013-04-22 22:31:00,48.7,26.1,30.44,NNW,331,0.0,4.0,41,0.00,,---,0.00,VWS V14.01,2013-04-23 05:31:00,
2013-04-22 22:35:00,48.4,25.8,30.44,NNW,338,0.0,2.0,41,0.00,,---,0.00,VWS V14.01,2013-04-23 05:35:00,
2013-04-22 22:36:00,48.5,25.9,30.44,NNW,338,0.0,2.0,41,0.00,,---,0.00,VWS V14.01,2013-04-23 05:36:00,
2013-04-22 22:40:00,48.3,25.1,30.44,NNW,336,0.0,0.0,40,0.00,,---,0.00,VWS V14.01,2013-04-23 05:40:00,
2013-04-22 22:41:00,48.3,25.1,30.44,NNW,336,0.0,0.0,40,0.00,,---,0.00,VWS V14.01,2013-04-23 05:41:00,
2013-04-22 22:45:00,48.3,25.7,30.44,NNW,336,0.0,0.0,41,0.00,,---,0.00,VWS V14.01,2013-04-23 05:45:00,
2013-04-22 22:46:00,48.3,25.7,30.44,NNW,336,0.0,0.0,41,0.00,,---,0.00,VWS V14.01,2013-04-23 05:46:00,
2013-04-22 22:50:00,48.0,26.0,30.44,NNW,336,0.0,0.0,42,0.00,,---,0.00,VWS V14.01,2013-04-23 05:50:00,
2013-04-22 22:51:00,48.0,26.0,30.44,NNW,336,0.0,0.0,42,0.00,,---,0.00,VWS V14.01,2013-04-23 05:51:00,
2013-04-22 22:55:00,47.6,26.8,30.43,NNW,337,0.0,0.0,44,0.00,,---,0.00,VWS V14.01,2013-04-23 05:55:00,
2013-04-22 22:56:00,47.7,26.3,30.43,NNW,337,0.0,0.0,43,0.00,,---,0.00,VWS V14.01,2013-04-23 05:56:00,
2013-04-22 23:00:00,47.3,26.0,30.44,NE,56,0.0,0.0,43,0.00,,---,0.00,VWS V14.01,2013-04-23 06:00:00,
2013-04-22 23:01:00,47.3,26.5,30.44,NE,56,0.0,0.0,44,0.00,,---,0.00,VWS V14.01,2013-04-23 06:01:00,
2013-04-22 23:05:00,47.5,25.0,30.43,East,91,1.0,2.0,41,0.00,,---,0.00,VWS V14.01,2013-04-23 06:05:00,
2013-04-22 23:06:00,47.5,25.0,30.43,East,91,1.0,2.0,41,0.00,,---,0.00,VWS V14.01,2013-04-23 06:06:00,
2013-04-22 23:10:00,47.6,25.1,30.43,East,84,1.0,2.0,41,0.00,,---,0.00,VWS V14.01,2013-04-23 06:10:00,
2013-04-22 23:11:00,47.6,25.1,30.43,East,84,1.0,2.0,41,0.00,,---,0.00,VWS V14.01,2013-04-23 06:11:00,
2013-04-22 23:15:00,47.4,26.6,30.43,East,94,3.0,3.0,44,0.00,,---,0.00,VWS V14.01,2013-04-23 06:15:00,
2013-04-22 23:16:00,47.5,26.7,30.43,East,93,1.0,3.0,44,0.00,,---,0.00,VWS V14.01,2013-04-23 06:16:00,
2013-04-22 23:20:00,47.3,27.0,30.43,East,89,1.0,3.0,45,0.00,,---,0.00,VWS V14.01,2013-04-23 06:20:00,
2013-04-22 23:21:00,47.3,27.0,30.43,East,90,2.0,3.0,45,0.00,,---,0.00,VWS V14.01,2013-04-23 06:21:00,
2013-04-22 23:25:00,47.2,28.0,30.42,East,89,2.0,3.0,47,0.00,,---,0.00,VWS V14.01,2013-04-23 06:25:00,
2013-04-22 23:26:00,47.2,28.0,30.42,East,88,3.0,3.0,47,0.00,,---,0.00,VWS V14.01,2013-04-23 06:26:00,
2013-04-22 23:30:00,47.1,28.4,30.43,East,100,0.0,3.0,48,0.00,,---,0.00,VWS V14.01,2013-04-23 06:30:00,
2013-04-22 23:31:00,47.1,28.4,30.43,East,100,0.0,3.0,48,0.00,,---,0.00,VWS V14.01,2013-04-23 06:31:00,
2013-04-22 23:35:00,47.1,28.4,30.43,East,101,0.0,2.0,48,0.00,,---,0.00,VWS V14.01,2013-04-23 06:35:00,
2013-04-22 23:36:00,47.0,28.3,30.43,East,101,0.0,2.0,48,0.00,,---,0.00,VWS V14.01,2013-04-23 06:36:00,
2013-04-22 23:40:00,46.8,28.2,30.42,South,188,0.0,1.0,48,0.00,,---,0.00,VWS V14.01,2013-04-23 06:40:00,
2013-04-22 23:41:00,46.8,28.2,30.42,South,188,0.0,1.0,48,0.00,,---,0.00,VWS V14.01,2013-04-23 06:41:00,
2013-04-22 23:45:00,46.3,27.7,30.42,South,188,0.0,0.0,48,0.00,,---,0.00,VWS V14.01,2013-04-23 06:45:00,
2013-04-22 23:46:00,46.3,27.7,30.42,South,188,0.0,0.0,48,0.00,,---,0.00,VWS V14.01,2013-04-23 06:46:00,
2013-04-22 23:50:00,45.9,27.8,30.42,SSW,195,0.0,0.0,49,0.00,,---,0.00,VWS V14.01,2013-04-23 06:50:00,
2013-04-22 23:51:00,46.0,27.9,30.42,SSW,195,0.0,0.0,49,0.00,,---,0.00,VWS V14.01,2013-04-23 06:51:00,
2013-04-22 23:55:00,45.6,27.1,30.42,SSW,195,0.0,0.0,48,0.00,,---,0.00,VWS V14.01,2013-04-23 06:55:00,
2013-04-22 23:56:00,45.7,27.1,30.42,SSW,195,0.0,0.0,48,0.00,,---,0.00,VWS V14.01,2013-04-23 06:56:00,